Miscellaneous Local Product
Issued by NWS North Platte, NE

Home | Current Version | Previous Version | Graphics & Text | Print | Product List | Glossary On
Versions: 1 2 3 4 5 6 7 8 9 10 11 12 13 14 15 16 17 18 19 20 21 22 23 24 25 26 27 28 29 30 31 32 33 34 35 36 37 38 39 40 41 42 43 44 45 46 47 48 49 50
000
AXUS43 KLBF 282110
MISLBF


WESTERN AND NORTH CENTRAL NEBRASKA HOURLY WEATHER ROUNDUP
NATIONAL WEATHER SERVICE NORTH PLATTE NE
400 PM CDT THU MAY 28 2015

***STATIONS NOT REPORTING VARIABLES SUCH AS SKY/WEATHER OR
PRESSURE ARE PROVIDED BY THE NEBRASKA DEPARTMENT OF
ROADS...RAWS...AND APRS NETWORKS...AND ARE NOT UNDER
NATIONAL WEATHER SERVICE QUALITY CONTROL***

...OBSERVATIONS IN AND NEAR THE EASTERN PANHANDLE OF NEBRASKA...

CITY           SKY/WX    TMP DP  RH WIND       PRES   REMARKS
PINE RIDGE     CLOUDY    74  49  41 W10       29.90F
CHADRON        PTSUNNY   71  56  58 NW8       29.92F
ALLIANCE       MOSUNNY   71  50  47 W13       29.92F
SIDNEY         TSTM      58  49  72 E15       30.01R
WHITECLAY        N/A     71  49  45 W12         N/A
BIG SPRINGS      N/A     74  59  59 S3          N/A
$$

...OBSERVATIONS IN NORTH CENTRAL NEBRASKA...

CITY           SKY/WX    TMP DP  RH WIND       PRES   REMARKS
VALENTINE      TSTM      67  61  81 S16       29.91F
THEDFORD       PTSUNNY   76  60  57 SE8G22    29.93R
AINSWORTH      CLOUDY    77  59  53 S16       29.91S
O`NEILL        CLOUDY    78  58  49 S12G21    29.90F
ORD            CLOUDY    76  58  53 S14       29.91F
BROKEN BOW     CLOUDY    73  60  63 S14G25    29.93F
BROWNLEE         N/A     78  54  42 S12         N/A
VALENTINE NWR    N/A     74  59  58 S9G18       N/A
SPRINGVIEW       N/A     76  62  60 W8          N/A
HALSEY           N/A     74  58  57 S12G20      N/A
BREWSTER         N/A     77  63  60 S17         N/A
ROSE             N/A     77  61  58 SE16        N/A
NEWPORT          N/A     77  60  55 S15         N/A
SARGENT          N/A     74  60  61 SW3         N/A
COMSTOCK         N/A     79  64  61 SW10        N/A
EWING            N/A     79  62  55 S6          N/A
$$

...OBSERVATIONS IN SOUTHWEST NEBRASKA AND FAR NORTHEAST COLORADO...

CITY           SKY/WX    TMP DP  RH WIND       PRES   REMARKS
WRAY           FAIR      79  57  46 E10       29.91F
HOLYOKE        FAIR      79  57  47 SE7       29.93F
IMPERIAL       MOSUNNY   74  61  63 SE9       29.91F
OGALLALA       MOSUNNY   74  58  56 S7        29.91F
NORTH PLATTE   CLOUDY    73  59  61 S9        29.91F
MCCOOK         MOSUNNY   78  60  53 S17G24    29.91F
LEXINGTON      MOSUNNY   74  62  66 S13       29.92F
PAXTON           N/A     72  60  66 S7          N/A
GOTHENBURG       N/A     75  58  54 S9          N/A
CALLAWAY         N/A     75  64  70 S14         N/A
$$

...NORTH PLATTE AREA...

CITY           SKY/WX    TMP DP  RH WIND       PRES   REMARKS
AIRPORT        CLOUDY    73  59  61 S9        29.91F
DOWNTOWN         N/A     74  61  63 S7          N/A
$$

...SOME WEATHER OBSERVATIONS FROM AROUND THE REGION...

CITY           SKY/WX    TMP DP  RH WIND       PRES   REMARKS
DENVER         CLOUDY    67  47  48 SE3       30.00F
LARAMIE        MOSUNNY   61  34  36 W14       30.10F
CHEYENNE       PTSUNNY   66  37  34 NW13G23   30.03F
SCOTTSBLUFF    PTSUNNY   72  47  40 W10       29.94F
RAPID CITY     MOSUNNY   73  53  49 NW10      29.91F
PIERRE         PTSUNNY   81  61  50 W10       29.81F
WINNER         FAIR      83  57  41 S17       29.85F
SIOUX FALLS    PTSUNNY   79  58  48 S15G29    29.91F
OMAHA          LGT RAIN  70  64  81 S16       30.00F
GRAND ISLAND   CLOUDY    74  59  59 S14       29.95F
KANSAS CITY    CLOUDY    71  66  84 S9        30.04F
WICHITA        PTSUNNY   79  63  57 S14       29.97F
HAYS           MOSUNNY   79  61  53 SE17G23   29.93F
LIBERAL        PTSUNNY   75  61  60 S15       29.96S
GOODLAND       PTSUNNY   68  61  78 SE14      29.92F
$$



USA.gov is the U.S. government's official web portal to all federal, state and local government web resources and services.